VK6ADF Weather Reports


time (UTC)temp
C
wind
direction
speed
KPH
gust
KPH
rain 1hr
cm
rain 24hr
cm
rain mn
cm
humidity
%
barometer
mb
20260505003128 16 339 6.4 11.3 0.00 0.00 0.00 62 1024.2
20260505003038 16 339 6.4 11.3 0.00 0.00 0.00 62 1024.2
20260505001529 15 327 6.4 12.9 0.00 0.00 0.00 65 1024.1
20260505000037 13 329 6.4 12.9 0.00 0.00 0.00 68 1023.9
20260504234531 13 314 6.4 9.7 0.00 0.00 0.00 70 1023.8
20260504231529 12 208 4.8 11.3 0.00 0.00 0.00 71 1023.7
20260504230040 12 333 4.8 8.0 0.00 0.00 0.00 72 1023.7
20260504224533 12 207 6.4 8.0 0.00 0.00 0.00 72 1023.5
20260504223031 12 323 3.2 8.0 0.00 0.00 0.00 71 1023.3
20260504221528 12 331 6.4 12.9 0.00 0.00 0.00 71 1023.2
20260504220028 12 345 4.8 8.0 0.00 0.00 0.00 71 1023.1
20260504214529 12 318 3.2 6.4 0.00 0.00 0.00 71 1023.2
20260504213033 12 24 3.2 8.0 0.00 0.00 0.00 71 1023.1
20260504211530 12 192 1.6 6.4 0.00 0.00 0.00 72 1023.0
20260504210028 12 172 1.6 3.2 0.00 0.00 0.00 71 1023.0
20260504204624 12 172 0.0 1.6 0.00 0.00 0.00 71 1023.0
20260504201530 13 172 0.0 1.6 0.00 0.00 0.00 69 1022.8
20260504200030 13 172 1.6 6.4 0.00 0.00 0.00 69 1022.9
20260504183030 12 0 0.0 0.0 0.00 0.00 0.00 71 1022.8
20260504181530 12 0 0.0 0.0 0.00 0.00 0.00 72 1022.7
20260504180029 11 0 0.0 0.0 0.00 0.00 0.00 72 1022.8
20260504174528 11 0 0.0 0.0 0.00 0.00 0.00 72 1022.8
20260504173028 11 0 0.0 0.0 0.00 0.00 0.00 70 1022.9
20260504171542 12 0 0.0 0.0 0.00 0.00 0.00 67 1022.7
20260504081528 25 142 4.8 12.9 0.00 0.00 0.00 36 1021.6
20260504070109 26 12 6.4 14.5 0.00 0.00 0.00 35 1021.6
20260504060129 26 262 6.4 17.7 0.00 0.00 0.00 36 1021.8
20260504050249 25 50 8.0 22.5 0.00 0.00 0.00 37 1022.3
20260504044531 25 337 9.7 20.9 0.00 0.00 0.00 37 1022.6
20260504043042 25 200 6.4 17.7 0.00 0.00 0.00 38 1023.0
20260504040113 24 328 9.7 19.3 0.00 0.00 0.00 40 1023.7
20260504040035 24 328 9.7 19.3 0.00 0.00 0.00 40 1023.7
20260504034530 23 67 12.9 25.7 0.00 0.00 0.00 41 1023.7
20260504033030 23 36 11.3 20.9 0.00 0.00 0.00 41 1024.1
20260504031535 23 336 8.0 17.7 0.00 0.00 0.00 43 1024.4
20260504030030 22 313 9.7 22.5 0.00 0.00 0.00 43 1024.5
20260504024550 22 339 9.7 20.9 0.00 0.00 0.00 45 1024.6
20260504023030 21 128 9.7 22.5 0.00 0.00 0.00 49 1024.8
20260504021533 21 82 11.3 20.9 0.00 0.00 0.00 51 1025.0
20260504020046 20 267 9.7 25.7 0.00 0.00 0.00 53 1025.3
20260504014536 19 333 9.7 22.5 0.00 0.00 0.00 55 1025.5
20260504013028 18 348 9.7 19.3 0.00 0.00 0.00 58 1025.6
20260504011638 17 340 11.3 20.9 0.00 0.00 0.00 60 1025.6
20260504010028 16 342 8.0 20.9 0.00 0.00 0.00 63 1025.9
20260504004528 16 329 6.4 17.7 0.00 0.00 0.00 65 1025.9